SCP
0 0 0 0 0 0 0 0 0 0 0 0 0 0 0 0 0 0 1 1 1 1 1 1 1 1 1 1 1 1 1 1 0 0 0 0 0 0 0 0 0 0 0 0
0 0 0 0 0 0 0 0 0 0 0 0 0 0 0 0 0 0 0 1 1 1 1 1 1 1 1 1 1 1 1 0 0 0 0 0 0 0 0 0 0 0 0 0
0 0 0 0 0 0 0 0 0 0 0 0 0 0 0 0 0 0 0 0 1 1 1 1 1 1 1 1 1 1 1 0 0 0 0 0 0 0 0 0 0 0 0 0
0 0 0 0 0 0 0 0 0 0 0 0 0 0 0 0 0 0 0 0 1 1 1 1 1 1 1 1 1 0 0 0 0 0 0 0 0 0 0 0 0 0 0 0
0 0 0 0 0 0 0 0 0 0 0 0 0 0 0 0 0 0 0 0 0 1 1 1 1 0 0 0 0 0 0 0 0 0 0 0 0 0 0 0 0 0 0 0
0 0 0 0 0 0 0 0 0 0 0 0 0 0 0 0 0 0 0 0 0 0 1 1 0 0 0 0 0 0 0 0 0 0 0 0 0 0 0 0 0 0 0 0
0 0 0 0 0 0 0 0 0 0 0 0 0 0 0 0 0 0 0 0 0 0 0 0 0 0 0 0 0 0 0 0 0 0 0 0 0 0 0 0 0 0 0 0
0 0 0 0 0 0 0 0 0 0 0 0 0 0 0 0 0 0 0 0 0 0 0 0 0 0 0 0 0 0 0 0 0 0 0 0 0 0 0 0 0 0 0 0
0 0 0 0 0 0 0 0 0 0 0 0 0 0 0 0 0 0 0 0 0 0 0 0 0 0 1 0 0 0 0 0 0 0 0 0 0 0 0 0 0 0 0 0
0 0 0 0 0 0 0 0 0 0 0 0 0 0 0 0 0 0 0 0 0 0 0 0 0 0 0 1 0 0 0 0 0 0 0 0 0 0 0 0 0 0 0 0
0 0 0 0 0 0 0 0 0 0 0 0 0 0 0 0 0 0 0 0 0 0 0 0 0 0 0 0 0 0 0 0 0 0 0 0 0 0 0 0 0 0 0 0
0 0 0 0 0 0 0 0 0 0 0 0 0 0 0 0 0 0 0 0 0 0 0 0 0 0 1 1 1 0 0 0 0 0 0 0 0 0 0 0 0 0 0 0
0 0 0 0 0 0 0 0 0 0 0 0 0 0 0 0 0 0 0 0 0 0 0 0 0 0 1 1 1 1 0 0 0 0 0 0 0 0 0 0 0 0 0 0
0 0 0 0 0 0 0 0 0 0 0 0 0 0 0 0 0 0 0 0 0 0 0 0 0 0 0 1 1 0 0 0 0 0 0 0 0 0 0 0 0 0 0 0
0 0 0 0 0 0 0 0 0 0 0 0 0 0 0 0 0 0 0 0 0 0 0 0 0 0 0 0 0 0 0 0 0 0 0 0 0 0 0 0 0 0 0 0
0 0 0 0 0 0 0 0 0 0 0 0 0 0 0 0 0 0 0 0 0 0 0 0 0 0 0 0 0 0 0 0 0 0 0 0 0 0 0 0 0 0 0 0
0 0 0 0 0 0 0 0 0 0 0 0 0 0 0 0 0 0 0 0 0 0 0 0 0 0 0 0 0 0 0 0 0 0 0 0 0 0 0 0 0 0 0 0
0 0 0 0 0 0 0 0 0 0 0 0 0 0 0 0 0 0 0 0 0 0 0 0 0 0 0 0 0 0 0 0 0 0 0 0 0 0 0 0 0 0 0 0
0 0 0 0 0 0 0 0 0 0 0 0 1 1 1 0 0 0 0 0 0 0 0 0 0 0 0 0 0 0 0 0 0 0 0 0 0 0 0 0 0 0 0 0
0 0 0 0 0 0 0 0 0 0 0 0 1 1 0 0 0 0 0 0 0 0 0 0 0 0 0 0 0 0 0 0 0 0 0 0 0 0 0 0 0 0 0 0
0 0 0 0 0 0 0 0 0 0 0 0 0 0 0 0 0 0 0 0 0 0 0 0 0 0 0 0 0 0 0 0 0 0 0 0 0 0 0 0 0 0 0 0
0 0 0 0 0 0 0 0 0 0 0 0 0 0 0 0 0 0 0 0 0 0 0 0 0 0 0 0 0 0 0 0 0 0 0 0 0 0 0 0 0 0 0 0
0 0 0 0 0 0 0 0 0 0 0 0 0 0 0 0 0 0 0 0 0 0 0 0 0 0 0 0 0 0 0 0 0 0 0 0 0 0 0 0 0 0 0 0
0 0 0 0 0 0 0 0 0 0 0 0 0 0 0 0 0 0 0 0 0 0 0 0 0 0 -0 -0 0 0 0 0 0 0 0 0 0 0 0 0 0 0 0 0
0 0 0 0 0 0 0 0 0 0 0 0 0 0 0 0 0 0 0 0 0 0 0 0 0 0 0 -0 -0 0 0 0 0 0 0 0 0 0 0 0 0 0 0 0
0 0 0 0 0 0 0 0 0 0 0 0 0 0 0 0 0 0 0 0 0 0 0 0 0 0 0 -0 0 -0 0 0 0 0 0 0 0 0 0 0 0 0 0 0
Wind_Speed
4 1 7 10 9 12 10 9 8 6 2 3 2 3 4 6 7 8 7 8 9 9 7 8 10 10 9 10 10 10 9 8 7 6 6 6 5 4 3 3 5 5 5 5
4 8 14 12 13 12 11 8 6 3 1 3 1 1 3 6 8 9 10 10 9 8 8 9 9 10 10 10 10 10 10 8 7 6 5 4 5 4 4 3 4 5 5 5
10 13 10 10 12 11 10 6 5 3 1 4 3 3 2 2 3 5 7 9 10 13 13 12 12 11 10 10 11 11 10 9 8 7 5 5 4 3 2 3 3 4 5 5
9 12 11 12 13 10 8 6 3 0 3 3 3 2 5 3 3 4 6 8 9 10 11 11 11 11 11 11 10 10 10 9 8 8 8 9 6 5 5 4 4 4 5 5
8 7 8 11 12 9 7 4 1 2 4 3 4 2 7 4 3 4 6 9 9 10 12 12 13 12 11 11 10 10 9 9 8 8 9 8 5 4 3 4 5 4 3 4
12 10 8 10 12 8 5 3 5 6 6 3 2 1 6 3 5 5 5 8 10 10 11 10 10 9 8 8 9 10 10 9 8 8 8 8 8 6 6 5 5 4 3 3
9 12 11 9 9 9 3 4 5 6 5 3 2 2 8 8 6 5 6 8 10 10 10 10 10 10 10 10 10 10 11 9 9 9 8 8 8 8 9 7 7 5 4 3
7 10 9 7 8 7 5 6 6 4 4 3 1 4 8 8 6 5 5 7 9 11 11 12 12 12 12 12 12 11 12 10 10 9 8 7 8 6 6 7 6 7 5 5
9 10 7 6 5 5 4 3 6 7 2 1 3 5 8 5 5 3 3 6 8 11 12 12 12 12 12 12 12 12 12 10 10 9 8 7 7 7 7 7 6 5 5 5
9 6 8 5 2 2 4 4 5 5 4 2 2 4 5 4 4 2 2 5 7 9 10 11 11 12 11 11 10 10 10 10 10 9 8 8 7 7 6 6 6 6 6 6
5 7 6 2 3 5 1 2 4 4 5 6 3 6 6 6 5 3 3 5 7 8 9 9 10 10 10 9 9 10 10 9 9 9 8 7 7 6 6 6 7 6 6 7
3 6 4 5 4 2 5 6 7 5 3 4 4 7 4 5 5 4 3 4 6 7 8 9 10 9 9 10 10 10 10 10 10 9 8 8 7 6 7 7 7 6 7 7
1 5 2 5 5 4 2 3 5 6 5 4 5 6 2 2 2 3 3 3 4 5 5 6 6 8 9 10 9 9 10 10 9 8 9 8 8 8 8 8 7 6 7 7
2 4 6 7 8 4 2 3 3 6 5 5 7 6 3 4 4 3 3 3 3 4 5 5 5 5 6 7 7 8 8 8 8 8 8 8 9 9 8 7 6 6 7 7
4 1 2 4 5 4 4 5 7 6 8 8 7 7 7 8 7 5 3 3 4 4 4 5 5 5 5 5 5 6 6 6 6 6 6 7 7 6 5 5 6 6 6 8
3 1 2 2 2 3 3 4 5 5 5 4 4 4 4 5 3 3 4 5 5 5 5 5 4 4 5 5 4 4 4 4 4 4 3 3 3 3 3 3 4 4 5 5
1 2 1 3 3 1 4 4 4 3 3 6 7 6 4 5 5 4 5 7 6 7 7 7 5 5 4 4 5 5 5 6 7 5 3 3 3 3 2 2 3 4 4 4
4 3 3 1 1 4 6 3 3 5 2 1 5 7 8 8 6 6 6 9 8 9 9 8 7 7 6 5 6 6 6 7 7 6 4 3 3 3 2 2 3 4 3 4
3 5 4 3 3 3 3 2 1 5 2 2 10 12 12 11 11 10 9 10 11 11 10 9 9 8 9 8 8 9 8 7 7 5 4 3 3 3 2 2 1 1 2 2
3 4 4 3 3 5 4 3 0 6 2 2 9 13 11 8 6 4 6 10 12 12 10 10 10 11 11 9 8 11 9 9 7 5 4 4 4 4 4 3 2 1 2 2
2 2 2 3 3 4 3 4 2 4 7 6 7 10 8 6 7 10 10 11 11 11 10 10 11 11 8 7 9 11 9 8 5 5 5 5 5 4 4 3 3 3 4 4
2 2 2 3 3 5 2 1 2 4 3 6 7 8 12 14 15 14 14 11 10 11 10 10 11 10 8 7 9 10 8 5 5 6 7 6 6 5 6 5 4 5 5 5
2 3 2 3 3 2 1 1 1 4 6 6 7 11 15 16 15 14 13 11 10 10 9 8 10 10 8 7 8 9 5 5 6 7 6 5 5 5 5 5 5 4 4 4
2 1 2 1 1 3 4 3 3 4 7 8 11 13 15 16 15 14 12 10 9 8 8 8 9 10 8 7 7 6 5 6 7 7 6 5 5 5 4 3 3 3 2 2
2 1 2 2 1 4 5 3 5 8 11 14 13 13 15 17 15 13 11 10 8 8 6 7 8 8 7 6 7 6 6 7 8 7 6 5 5 4 4 3 3 2 2 3
1 3 4 3 4 4 1 2 8 12 13 14 16 15 13 14 14 13 10 8 8 7 6 7 7 7 6 6 6 5 5 6 6 6 5 4 3 3 3 4 5 9 8 10
Wind_Direction
274 269 254 251 236 237 259 272 280 283 259 119 157 167 183 167 168 176 181 183 177 177 174 167 166 169 166 161 163 160 159 157 144 139 142 142 147 153 148 152 150 142 135 124
313 269 254 263 270 271 270 277 282 312 15 105 121 136 196 181 189 186 182 183 175 163 166 175 174 174 176 168 166 161 163 161 156 155 153 148 147 157 158 153 153 151 141 136
231 252 271 281 284 284 278 256 246 239 39 46 77 1 308 258 220 198 186 180 174 173 176 179 180 183 177 174 173 171 169 166 164 157 136 123 107 102 110 146 165 166 150 142
242 257 265 274 277 280 281 269 221 143 70 0 43 315 294 295 271 212 198 187 184 178 175 178 182 182 182 183 175 169 170 166 165 157 151 152 155 164 183 176 173 173 162 152
242 253 264 270 270 280 271 279 25 71 92 53 19 56 298 341 309 256 212 198 190 180 179 182 184 184 183 179 175 172 170 169 168 166 162 160 162 168 166 158 161 171 171 165
241 254 250 258 274 278 274 18 30 46 66 38 302 152 283 268 255 268 223 201 195 184 182 184 181 175 177 179 177 173 170 176 175 171 167 168 172 169 161 165 170 178 178 177
261 266 263 261 278 296 317 70 18 359 15 262 242 184 255 252 255 247 225 204 193 186 181 179 177 177 178 180 182 178 176 180 179 175 175 178 179 174 174 174 177 178 179 188
222 263 251 238 221 236 258 154 169 205 217 247 248 239 258 265 269 262 227 199 188 187 185 183 184 182 184 183 182 181 182 184 182 181 182 180 177 175 177 178 177 186 189 193
198 239 246 239 242 195 236 237 176 141 137 136 248 286 300 299 305 282 215 190 194 191 188 186 185 185 186 184 183 183 183 184 185 185 179 183 182 177 180 182 182 189 195 194
180 227 266 259 300 319 179 164 90 107 145 200 250 254 249 268 268 281 229 199 199 192 188 185 185 187 187 186 183 181 181 184 185 186 186 191 192 189 186 185 192 195 197 193
182 197 271 316 217 220 167 106 119 128 151 154 202 250 225 218 225 224 222 204 187 183 184 185 187 185 183 181 180 184 185 185 186 189 192 194 194 195 192 194 200 196 193 187
198 161 229 254 260 214 167 166 144 147 202 162 173 250 235 201 204 207 207 189 175 180 181 183 184 179 178 181 183 187 187 189 191 191 192 197 197 196 198 203 203 193 191 188
21 110 83 337 338 6 100 146 143 131 126 156 170 247 229 197 206 223 188 165 153 165 170 169 171 179 183 185 186 189 190 192 191 188 193 198 200 200 206 209 202 194 191 188
79 121 162 201 224 215 209 200 164 132 152 187 204 205 210 218 202 216 203 150 116 140 160 159 158 170 175 178 178 186 193 192 189 190 194 201 205 205 206 205 199 195 190 188
55 112 230 230 232 202 210 211 196 184 183 181 209 196 207 201 193 198 186 133 105 112 129 141 151 159 158 163 173 181 185 182 184 186 194 204 205 202 200 200 200 199 199 198
46 84 343 312 265 264 254 230 206 198 179 181 161 220 207 175 147 149 136 117 114 114 112 110 112 129 139 141 143 139 139 145 143 156 180 181 158 162 179 200 204 201 207 203
176 124 76 275 289 360 264 246 199 189 155 159 189 205 146 130 137 146 128 112 109 102 100 94 92 98 107 115 118 119 123 115 112 114 117 118 128 154 182 204 215 212 208 195
161 136 142 171 76 221 241 268 148 122 95 128 131 123 117 116 95 76 98 106 100 94 92 90 88 87 83 84 91 92 90 96 102 101 98 112 121 141 154 179 218 216 203 187
153 145 143 152 191 245 276 298 134 111 43 99 126 127 123 114 83 54 56 85 91 87 83 78 76 80 78 74 77 81 77 81 87 86 80 83 101 108 112 113 125 190 174 162
59 102 129 150 182 211 240 298 347 104 103 222 139 143 144 126 105 104 85 88 86 82 80 79 76 76 74 71 79 81 75 74 73 73 77 71 80 88 87 89 98 84 102 120
20 48 131 166 204 240 264 311 33 152 198 188 157 147 138 120 130 125 104 90 88 87 84 82 80 75 70 70 80 80 74 69 67 68 66 61 66 74 73 65 54 61 68 72
197 176 169 157 191 237 299 48 157 193 159 140 131 124 111 109 112 111 105 99 97 92 85 82 82 74 62 61 76 76 65 56 58 64 63 57 53 60 70 73 59 61 74 74
212 202 184 184 213 281 6 117 168 137 128 124 128 124 121 119 117 112 107 105 100 97 92 86 87 81 65 56 69 74 58 52 56 56 54 53 56 55 59 72 74 67 69 79
267 215 152 111 354 33 31 41 60 102 113 120 124 124 122 118 116 112 110 107 103 99 96 93 89 84 72 61 63 65 55 55 59 54 44 42 51 50 49 58 72 80 84 90
247 204 133 103 85 49 30 56 91 95 102 104 108 115 120 118 116 115 113 112 110 103 96 93 93 91 83 71 63 59 60 62 58 50 42 40 44 47 43 39 42 57 60 108
236 197 156 175 185 135 132 85 109 106 107 114 114 107 107 113 116 115 113 112 110 106 100 95 93 92 84 75 66 53 54 63 62 49 39 37 36 38 43 50 47 48 61 68